Regional Weather Roundup
Issued by NWS Kansas City/Pleasant Hill, MO

Home | Current Version | Previous Version | Text Only | Print | Product List | Glossary On
Versions: 1 2 3 4 5 6 7 8 9 10 11 12 13 14 15 16 17 18 19 20 21 22 23 24 25 26 27 28 29 30 31 32 33 34 35 36 37 38 39 40 41 42 43 44 45 46 47 48 49 50
000
ASUS43 KEAX 260804
RWREAX

WEATHER ROUNDUP FOR EASTERN KANSAS AND NORTHWEST MISSOURI
NATIONAL WEATHER SERVICE KANSAS CITY/PLEASANT HILL MO
200 AM CST MON JAN 26 2015

KSZ040-057-103>105-MOZ028-029-037-043-260900-
...KANSAS CITY METROPOLITAN AREA...

CITY           SKY/WX    TMP DP  RH WIND       PRES   REMARKS
K.C. INTL      CLEAR     29  27  92 CALM      30.09S
K.C. DOWNTOWN  CLEAR     28  26  92 CALM      30.10S
LEES SUMMIT    CLEAR     29  26  89 CALM      30.09S
OLATHE - IXD   CLEAR     26  25  96 CALM      30.10S
OLATHE - OJC   FAIR      27  25  92 CALM      30.09R
LAWRENCE       CLEAR     20  17  88 NW3       30.10S FOG

$$

MOZ001>008-011>017-020>025-030>033-038>040-044>046-053-054-260900-
...NORTHERN AND CENTRAL MISSOURI...

CITY           SKY/WX    TMP DP  RH WIND       PRES   REMARKS
ST. JOSEPH     PTCLDY    24  23  96 S7        30.09F WCI  16
MOSBY          SUNNY     23  23 100 CALM      30.10S
WARRENSBURG    MOCLDY    28  27  93 SW3       30.10R
WHITEMAN AFB   CLEAR     30  26  86 W5        30.08S WCI  25
CLINTON        CLOUDY    32  30  93 CALM      30.10F
SEDALIA        CLOUDY    33  28  81 CALM      30.09F
WARSAW         NOT AVBL
MARSHALL       CLOUDY    36  30  80 NW5       30.09F WCI  32
CHILLICOTHE      N/A     28  25  88 CALM      30.08F
MOBERLY        MOCLDY    28  25  86 CALM      30.08S
KIRKSVILLE     CLOUDY    30  26  85 CALM      30.06S

$$

MOZ041-047>049-056>058-063>065-088>090-097-260900-
...EASTERN AND SOUTHERN MISSOURI...

CITY           SKY/WX    TMP DP  RH WIND       PRES   REMARKS
ST. LOUIS INTL MOCLDY    29  20  69 NW12      30.04R WCI  19
SPIRIT OF STL  MOCLDY    29  21  72 NW8G21    30.05R WCI  21
COLUMBIA       CLOUDY    30  26  85 N7        30.07S WCI  23
JEFFERSON CITY CLOUDY    32  28  85 NW6       30.09S WCI  26
MEXICO         PTCLDY    28  27  93 NW5       30.06F WCI  23
HANNIBAL       MOCLDY    25  21  86 NW5       30.07R WCI  19
ROLLA          CLOUDY    29  26  89 NW10      30.03S WCI  20
LEBANON        CLOUDY    32  30  93 NW6       30.06S WCI  26
OSAGE BEACH    CLOUDY    32  27  80 NW7       30.08S WCI  26
SPRINGFIELD    CLOUDY    34  28  79 NW10      30.08S WCI  26
NEVADA         CLEAR     30  27  86 W5        30.13S WCI  25
JOPLIN         CLEAR     32  27  81 CALM      30.13R
WEST PLAINS    CLOUDY    33  29  85 NW6       30.05R WCI  28

$$

IAZ060-094-KSZ022-034>040-054-083-096-NEZ052-066-093-260900-
...KANSAS...SOUTHEAST NEBRASKA AND IOWA...

CITY           SKY/WX    TMP DP  RH WIND       PRES   REMARKS
TOPEKA         CLEAR     26  24  92 CALM      30.11S
MANHATTAN      CLEAR     22  21  96 SW3       30.12R
EMPORIA        PTCLDY    29  26  89 W3        30.12R
CHANUTE        CLEAR     28  26  92 W5        30.13R WCI  23
WICHITA        PTCLDY    27  24  89 W5        30.14S WCI  22
OMAHA          CLEAR     27  25  92 SE9       30.02F WCI  18
LINCOLN        CLOUDY    33  29  85 SW6       30.03F WCI  28
FALLS CITY     CLEAR     28  25  88 SW6       30.07F WCI  22
LAMONI         CLOUDY    30  26  85 SW3       30.04S
DES MOINES     CLOUDY    32  24  72 SW6       30.03S WCI  26

$$



USA.gov is the U.S. government's official web portal to all federal, state and local government web resources and services.